Location: *
(45.1333°S, 169.6333°W)
Time: 06:28:34
(UTC+00:00)

CZ-2C R/B - Visible Passes

Search period start: 06 October 2022 00:00
Search period end: 16 October 2022 00:00
Orbit: 705 x 906 km, 98.1° (Epoch: 05 October)

Date Brightness Start Highest point End Pass type
(mag) Time Alt. Az. Time Alt. Az. Time Alt. Az.
06 Oct 4.0 14:21:52 10° NE 14:26:31 45° ESE 14:31:07 10° S visible
06 Oct 4.0 16:02:51 10° NW 16:06:38 22° W 16:10:22 10° SW visible
07 Oct 4.9 13:57:33 10° ENE 14:01:39 28° ESE 14:05:42 10° S visible
07 Oct 3.4 15:36:53 10° NNW 15:41:24 36° W 15:45:53 10° SSW visible
08 Oct 5.6 13:33:44 10° ENE 13:36:52 17° ESE 13:39:59 10° SSE visible
08 Oct 2.8 15:11:26 10° N 15:16:16 63° W 15:21:05 10° SSW visible
09 Oct 6.0 13:11:10 10° ESE 13:12:11 11° SE 13:13:11 10° SE visible
09 Oct 3.0 14:46:22 10° NNE 14:51:13 77° ESE 14:56:04 10° S visible
10 Oct 3.9 14:21:39 10° NE 14:26:15 45° ESE 14:30:51 10° S visible
10 Oct 4.1 16:02:41 10° NW 16:06:22 21° W 16:10:03 10° SW visible
11 Oct 4.9 13:57:19 10° ENE 14:01:22 28° ESE 14:05:27 10° S visible
11 Oct 3.4 15:36:42 10° NNW 15:41:08 36° W 15:45:35 10° SSW visible
12 Oct 5.6 13:33:28 10° ENE 13:36:36 17° ESE 13:39:43 10° SSE visible
12 Oct 2.8 15:11:13 10° N 15:15:59 61° W 15:20:48 10° SSW visible
13 Oct 6.0 13:10:48 10° ESE 13:11:54 11° SE 13:13:01 10° SE visible
13 Oct 3.0 14:46:07 10° NNE 14:50:56 78° ESE 14:55:46 10° S visible
14 Oct 3.9 14:21:24 10° NE 14:25:58 46° ESE 14:30:35 10° S visible
15 Oct 4.9 13:57:02 10° ENE 14:01:05 28° ESE 14:05:12 10° S visible
15 Oct 3.5 15:36:29 10° NNW 15:40:52 35° W 15:45:18 10° SSW visible
